FW9766 Weather Reports


Display with metric or nautical units.
time (UTC)temp
F
wind
direction
speed
MPH
gust
MPH
rain 1hr
in
rain 24hr
in
rain mn
in
humidity
%
barometer
mb
20260505204546 84 127 6.0 14.0 0.00 0.00 0.00 69 1008.3
20260505203100 84 111 5.0 13.0 0.00 0.00 0.00 71 1008.4
20260505201540 83 99 6.0 11.0 0.00 0.00 0.00 70 1008.5
20260505200048 82 166 8.0 12.0 0.00 0.00 0.00 70 1008.8
20260505194547 82 100 4.0 9.0 0.00 0.00 0.00 72 1009.1
20260505193045 81 137 6.0 12.0 0.00 0.00 0.00 74 1009.1
20260505191551 80 117 5.0 14.0 0.00 0.00 0.00 75 1009.2
20260505190046 80 121 6.0 14.0 0.00 0.00 0.00 75 1009.4
20260505184552 79 131 6.0 13.0 0.00 0.00 0.00 76 1009.6
20260505183048 79 113 3.0 10.0 0.00 0.00 0.00 76 1009.9
20260505181544 78 130 6.0 12.0 0.00 0.00 0.00 78 1010.1
20260505180048 77 87 6.0 11.0 0.00 0.00 0.00 80 1010.2
20260505174543 76 120 5.0 11.0 0.00 0.00 0.00 81 1010.5
20260505173047 75 133 4.0 10.0 0.00 0.00 0.00 84 1010.7
20260505171547 73 163 4.0 10.0 0.00 0.00 0.00 84 1010.7
20260505170047 73 123 5.0 11.0 0.00 0.00 0.00 85 1010.6
20260505164548 72 132 6.0 11.0 0.00 0.00 0.00 87 1010.6
20260505163043 71 95 6.0 13.0 0.00 0.00 0.00 88 1010.6
20260505161543 71 111 3.0 11.0 0.00 0.00 0.00 90 1010.4
20260505153051 69 92 3.0 9.0 0.00 0.00 0.00 93 1010.4
20260505151547 68 109 6.0 11.0 0.00 0.00 0.00 93 1010.4
20260505124546 67 119 6.0 12.0 0.00 0.00 0.00 96 1009.8
20260505123045 67 100 6.0 14.0 0.00 0.00 0.00 96 1009.6
20260505121548 67 85 6.0 12.0 0.00 0.00 0.00 95 1009.5
20260505120040 67 129 4.0 13.0 0.00 0.00 0.00 95 1009.3
20260505114548 67 89 6.0 13.0 0.00 0.00 0.00 95 1009.2
20260505113052 67 117 4.0 10.0 0.00 0.00 0.00 94 1008.9
20260505111548 67 114 5.0 9.0 0.00 0.00 0.00 94 1008.9
20260505101554 67 155 4.0 14.0 0.00 0.00 0.00 94 1008.9
20260505100047 67 54 5.0 12.0 0.00 0.00 0.00 94 1009.1
20260505094559 67 129 6.0 13.0 0.00 0.00 0.00 94 1009.1
20260505093053 67 80 5.0 11.0 0.00 0.00 0.00 93 1009.3
20260505091545 67 113 4.0 11.0 0.00 0.00 0.00 93 1009.2
20260505090057 68 86 4.0 12.0 0.00 0.00 0.00 93 1009.3
20260505084541 68 136 5.0 13.0 0.00 0.00 0.00 93 1009.4
20260505083102 68 94 5.0 14.0 0.00 0.00 0.00 93 1009.5
20260505081547 68 61 6.0 14.0 0.00 0.00 0.00 93 1009.6
20260505080046 68 96 6.0 15.0 0.00 0.00 0.00 92 1009.7
20260505074545 68 71 7.0 15.0 0.00 0.00 0.00 92 1009.8
20260505073051 68 101 6.0 15.0 0.00 0.00 0.00 92 1010.0
20260505071548 68 111 5.0 12.0 0.00 0.00 0.00 91 1010.2
20260505070100 68 64 6.0 15.0 0.00 0.00 0.00 91 1010.3
20260505064554 68 98 5.0 12.0 0.00 0.00 0.00 91 1010.4
20260505063044 68 78 3.0 11.0 0.00 0.00 0.00 90 1010.7
20260505061608 68 92 3.0 8.0 0.00 0.00 0.00 90 1010.7
20260505060048 69 96 4.0 12.0 0.00 0.00 0.00 89 1010.8
20260505054547 69 74 2.0 11.0 0.00 0.00 0.00 88 1010.7
20260505053048 68 78 2.0 9.0 0.00 0.00 0.00 87 1010.7
20260505051547 69 80 3.0 10.0 0.00 0.00 0.00 86 1010.9
20260505041555 70 110 2.0 7.0 0.00 0.00 0.00 82 1010.8
20260505040059 70 94 2.0 6.0 0.00 0.00 0.00 82 1010.8
20260505034544 70 76 2.0 12.0 0.00 0.00 0.00 82 1010.6
20260505033041 70 59 2.0 9.0 0.00 0.00 0.00 82 1010.6
20260505031552 70 80 3.0 8.0 0.00 0.00 0.00 82 1010.6
20260505030047 70 110 3.0 8.0 0.00 0.00 0.00 81 1010.7
20260505024545 70 66 2.0 7.0 0.00 0.00 0.00 81 1010.8
20260505023047 71 103 2.0 6.0 0.00 0.00 0.00 80 1010.6
20260505021547 71 96 3.0 8.0 0.00 0.00 0.00 80 1010.7
20260505020042 72 69 2.0 8.0 0.00 0.00 0.00 79 1010.6
20260505014549 72 84 2.0 8.0 0.00 0.00 0.00 78 1010.4
20260505013048 73 90 3.0 10.0 0.00 0.00 0.00 77 1010.7
20260505011548 73 98 2.0 8.0 0.00 0.00 0.00 76 1010.6
20260505010057 74 96 2.0 10.0 0.00 0.00 0.00 74 1010.7
20260505004544 75 87 5.0 13.0 0.00 0.00 0.00 72 1010.6
20260505003048 76 144 6.0 12.0 0.00 0.00 0.00 71 1010.6
20260505001550 77 121 6.0 11.0 0.00 0.00 0.00 70 1010.6
20260505000056 77 53 6.0 16.0 0.00 0.00 0.00 70 1010.7
20260504234550 77 67 5.0 16.0 0.00 0.00 0.00 70 1010.8
20260504233041 78 136 4.0 15.0 0.00 0.00 0.00 69 1010.8
20260504231541 79 111 7.0 17.0 0.00 0.00 0.00 67 1010.8
20260504230048 79 59 8.0 16.0 0.00 0.00 0.00 66 1010.9
20260504224553 79 105 8.0 15.0 0.00 0.00 0.00 67 1011.0
20260504223042 78 139 6.0 15.0 0.00 0.00 0.00 67 1011.1
20260504221549 79 61 7.0 15.0 0.00 0.00 0.00 67 1011.3
20260504220056 79 132 10.0 16.0 0.00 0.00 0.00 66 1011.3
20260504214546 79 106 7.0 20.0 0.00 0.00 0.00 67 1011.5
20260504213058 78 14 5.0 16.0 0.00 0.00 0.00 67 1011.6
20260504211551 78 100 8.0 17.0 0.00 0.00 0.00 68 1011.8
20260504210048 78 109 9.0 19.0 0.00 0.00 0.00 67 1012.0